YAOGAN-24

Last updated on Thu Oct 30 2025 00:02:31 GMT+0000 (Coordinated Universal Time)

1 40310U 14072A 25302.54969619 .00001320 00000+0 19828-3 0 9999 2 40310 98.1190 73.4161 0012332 287.6818 72.3045 14.76205403589691
UTC large
Height (km)
Speed (km/s)
/
Latitude / Longitude
Inclination (degrees)
Orbital Period (minutes)
Azimuth
Elevation
Range (km)
Doppler Factor

Next 0 passes for location: London (51.5072 / 0.1276)

Sorry there are no passes over London.